Weather History for Lakehurst NAS, NJ

Change the Weather History Date:

Friday, November 23, 2012

  Actual Average Record
Temperature  
Mean Temperature 44 °F -  
Max Temperature 46 °F 51 °F 64 °F (1999)
Min Temperature 28 °F 36 °F 28 °F (2005)
Degree Days  
Heating Degree Days 22    
Moisture  
Dew Point 37 °F    
Average Humidity 86    
Maximum Humidity 100    
Minimum Humidity 48    
Precipitation  
Precipitation 0.00 in - - ()
Sea Level Pressure  
Sea Level Pressure 29.95 in    
Wind  
Wind Speed 1 mph (SW)    
Max Wind Speed 8 mph    
Max Gust Speed -    
Averages and records for this station are not official NWS values.
T = Trace of Precipitation, MM = Missing Value Source: NWS Daily Summary

Daily Weather History Graph

Daily Weather History Graph

Search for Another Location

Airport:

Trip Planner

Search our weather history database for the weather conditions in past years. The results will help you decide how hot, cold, wet, or windy it might be!

Date:

Astronomy

Nov. 23, 2012 Rise Set
Actual Time 6:52 AM EST 4:35 PM EST
Civil Twilight 6:22 AM EST 5:05 PM EST
Nautical Twilight 5:49 AM EST 5:38 PM EST
Astronomical Twilight 5:16 AM EST 6:10 PM EST
Moon 1:48 PM EST (11/23) 2:08 AM EST (11/23)
Length of Visible Light 10h 42m
Length of Day
9h 43m
Waxing Gibbous, 79% of the Moon is Illuminated
Nov 23
Waxing Gibbous
Nov 28
Full
Dec 6
Last Quarter
Dec 13
New
Dec 20
First Quarter

Hourly Weather History & Observations

Time (EST) Temp. Windchill Dew Point Humidity Pressure Visibility Wind Dir Wind Speed Gust Speed Precip Events Conditions
12:00 AM 28.4 °F - 28.4 °F 100% 30.13 in - Calm Calm - N/A   Overcast
12:06 AM 28.0 °F - 27.0 °F 96% 30.13 in - Calm Calm - N/A   Overcast
12:25 AM 28.4 °F - 26.6 °F 93% 30.12 in - Calm Calm - N/A   Overcast
1:00 AM 28.9 °F - 28.9 °F 100% 30.12 in - Calm Calm - N/A   Overcast
2:00 AM 28.9 °F - 28.0 °F 96% 30.12 in - Calm Calm - N/A   Overcast
3:00 AM 30.0 °F - 30.0 °F 100% 30.10 in - Calm Calm - N/A   Overcast
4:00 AM 30.0 °F - 28.9 °F 96% 30.09 in - Calm Calm - N/A   Overcast
5:00 AM 30.0 °F - 30.0 °F 100% 30.08 in - Calm Calm - N/A   Overcast
6:00 AM 30.0 °F - 30.0 °F 100% 30.07 in - Calm Calm - N/A   Overcast
7:00 AM 28.9 °F - 28.0 °F 96% 30.06 in - Calm Calm - N/A   Overcast
8:00 AM 30.9 °F - 30.9 °F 100% 30.05 in - Calm Calm - N/A   Overcast
9:00 AM 37.0 °F - 37.0 °F 100% 30.03 in - Calm Calm - N/A   Overcast
9:48 AM 44.6 °F - 42.8 °F 93% 30.01 in - Calm Calm - N/A   Scattered Clouds
10:00 AM 45.0 °F 41.8 °F 43.0 °F 93% 30.01 in - West 5.8 mph - N/A   Clear
11:00 AM 52.0 °F - 43.0 °F 71% 29.97 in - WSW 4.6 mph - N/A   Clear
12:00 PM 55.9 °F - 43.0 °F 62% 29.91 in - SSE 5.8 mph - N/A   Clear
1:00 PM 57.0 °F - 41.0 °F 55% 29.89 in - Variable 4.6 mph - N/A   Clear
2:00 PM 59.0 °F - 39.0 °F 48% 29.85 in - SSW 8.1 mph - N/A   Clear
3:00 PM 59.0 °F - 39.0 °F 48% 29.82 in - SW 6.9 mph - N/A   Clear
4:00 PM 55.0 °F - 39.0 °F 55% 29.79 in - Calm Calm - N/A   Clear
5:00 PM 50.0 °F - 44.1 °F 80% 29.78 in - SSE 4.6 mph - N/A   Clear
6:00 PM 48.0 °F - 44.1 °F 86% 29.79 in - South 4.6 mph - N/A   Clear
7:00 PM 45.0 °F 43.5 °F 41.0 °F 86% 29.78 in - SSW 3.5 mph - N/A   Clear
8:00 PM 46.9 °F - 43.0 °F 86% 29.76 in - Calm Calm - N/A   Mostly Cloudy
9:00 PM 46.9 °F - 44.1 °F 90% 29.75 in - SW 3.5 mph - N/A   Overcast
10:00 PM 46.9 °F - 44.1 °F 90% 29.73 in - WSW 5.8 mph - 0.00 in Rain Light Rain
11:00 PM 46.9 °F - 44.1 °F 90% 29.72 in - SW 4.6 mph - 0.00 in   Overcast